Time,TemperatureF,DewpointF,PressureIn,WindDirection,WindDirectionDegrees,WindSpeedMPH,WindSpeedGustMPH,Humidity,HourlyPrecipIn,Conditions,Clouds,dailyrainin,SoftwareType,DateUTC
2013-07-17 00:00:00,77.7,72.8,30.14,SW,223,0.0,0.0,85,0.00,,---,0.00,VWS V14.01,2013-07-17 05:00:00,
2013-07-17 00:30:00,77.5,73.0,30.14,SW,223,0.0,0.0,86,0.00,,---,0.00,VWS V14.01,2013-07-17 05:30:00,
2013-07-17 01:00:00,77.4,73.2,30.13,SW,223,0.0,0.0,87,0.00,,---,0.00,VWS V14.01,2013-07-17 06:00:00,
2013-07-17 01:30:00,77.5,73.0,30.14,SW,223,0.0,0.0,86,0.00,,---,0.00,VWS V14.01,2013-07-17 06:30:00,
2013-07-17 02:00:00,76.9,73.1,30.14,SW,223,0.0,0.0,88,0.00,,---,0.00,VWS V14.01,2013-07-17 07:00:00,
2013-07-17 02:30:00,76.4,72.6,30.14,SW,223,0.0,0.0,88,0.00,,---,0.00,VWS V14.01,2013-07-17 07:30:00,
2013-07-17 03:00:00,75.6,72.1,30.14,SW,223,0.0,0.0,89,0.00,,---,0.00,VWS V14.01,2013-07-17 08:00:00,
2013-07-17 03:30:00,75.4,72.3,30.15,SW,223,0.0,0.0,90,0.00,,---,0.00,VWS V14.01,2013-07-17 08:30:00,
2013-07-17 04:00:00,75.3,72.2,30.15,SW,223,0.0,0.0,90,0.00,,---,0.00,VWS V14.01,2013-07-17 09:00:00,
2013-07-17 04:30:00,74.8,72.0,30.15,SW,223,0.0,0.0,91,0.00,,---,0.00,VWS V14.01,2013-07-17 09:30:00,
2013-07-17 05:00:00,74.3,71.8,30.16,SW,223,0.0,0.0,92,0.00,,---,0.00,VWS V14.01,2013-07-17 10:00:00,
2013-07-17 05:30:00,74.1,71.6,30.16,SW,223,0.0,0.0,92,0.00,,---,0.00,VWS V14.01,2013-07-17 10:30:00,
2013-07-17 06:00:00,74.0,71.8,30.17,SW,223,0.0,0.0,93,0.00,,---,0.00,VWS V14.01,2013-07-17 11:00:00,
2013-07-17 06:30:00,74.5,72.3,30.17,SW,223,0.0,0.0,93,0.00,,---,0.00,VWS V14.01,2013-07-17 11:30:00,
2013-07-17 07:00:00,76.0,73.2,30.17,NNW,334,0.0,0.0,91,0.00,,---,0.00,VWS V14.01,2013-07-17 12:00:00,
2013-07-17 07:30:00,77.5,73.7,30.17,NNW,334,0.0,1.0,88,0.00,,---,0.00,VWS V14.01,2013-07-17 12:30:00,
2013-07-17 08:00:00,79.3,74.1,30.17,NNW,340,0.0,7.0,84,0.00,,---,0.00,VWS V14.01,2013-07-17 13:00:00,
2013-07-17 08:30:00,81.2,75.2,30.17,NW,321,0.0,9.0,82,0.00,,---,0.00,VWS V14.01,2013-07-17 13:30:00,
2013-07-17 09:00:00,82.6,75.1,30.17,WNW,300,0.0,7.0,78,0.00,,---,0.00,VWS V14.01,2013-07-17 14:00:00,
2013-07-17 09:30:00,84.1,75.3,30.17,WNW,300,4.0,10.0,75,0.00,,---,0.00,VWS V14.01,2013-07-17 14:30:00,
2013-07-17 10:00:00,85.2,76.0,30.16,NW,312,6.0,7.0,74,0.00,,---,0.00,VWS V14.01,2013-07-17 15:00:00,
2013-07-17 10:30:00,86.0,74.7,30.16,NNW,332,0.0,9.0,69,0.00,,---,0.00,VWS V14.01,2013-07-17 15:30:00,
2013-07-17 11:00:00,86.8,74.1,30.15,WSW,250,0.0,9.0,66,0.00,,---,0.00,VWS V14.01,2013-07-17 16:00:00,
2013-07-17 11:30:00,87.7,75.4,30.15,WSW,239,0.0,6.0,67,0.00,,---,0.00,VWS V14.01,2013-07-17 16:30:00,
2013-07-17 12:00:00,88.6,75.8,30.14,NNW,329,3.0,7.0,66,0.00,,---,0.00,VWS V14.01,2013-07-17 17:00:00,
2013-07-17 12:30:00,89.0,73.8,30.13,WSW,244,0.0,10.0,61,0.00,,---,0.00,VWS V14.01,2013-07-17 17:30:00,
2013-07-17 13:00:00,89.6,74.9,30.13,WNW,289,0.0,9.0,62,0.00,,---,0.00,VWS V14.01,2013-07-17 18:00:00,
2013-07-17 13:30:00,89.5,73.8,30.12,NNW,327,0.0,10.0,60,0.00,,---,0.00,VWS V14.01,2013-07-17 18:30:00,
2013-07-17 14:00:00,90.0,73.8,30.11,SSW,207,0.0,11.0,59,0.00,,---,0.00,VWS V14.01,2013-07-17 19:00:00,
2013-07-17 14:30:00,90.2,73.9,30.09,NW,310,0.0,11.0,59,0.00,,---,0.00,VWS V14.01,2013-07-17 19:30:00,
2013-07-17 15:00:00,91.1,74.8,30.08,West,261,0.0,12.0,59,0.00,,---,0.00,VWS V14.01,2013-07-17 20:00:00,
2013-07-17 15:30:00,90.8,73.5,30.08,WNW,284,0.0,13.0,57,0.00,,---,0.00,VWS V14.01,2013-07-17 20:30:00,
2013-07-17 16:00:00,90.7,73.4,30.08,NNW,327,5.0,11.0,57,0.00,,---,0.00,VWS V14.01,2013-07-17 21:00:00,
2013-07-17 16:30:00,90.9,74.6,30.07,NW,325,3.0,12.0,59,0.00,,---,0.00,VWS V14.01,2013-07-17 21:30:00,
2013-07-17 17:00:00,90.9,73.6,30.07,West,271,1.0,9.0,57,0.00,,---,0.00,VWS V14.01,2013-07-17 22:00:00,
2013-07-17 17:30:00,90.8,73.5,30.07,WNW,298,0.0,9.0,57,0.00,,---,0.00,VWS V14.01,2013-07-17 22:30:00,
2013-07-17 18:00:00,89.6,74.4,30.06,WNW,291,0.0,13.0,61,0.00,,---,0.00,VWS V14.01,2013-07-17 23:00:00,
2013-07-17 18:30:00,89.3,74.6,30.05,NW,325,0.0,5.0,62,0.00,,---,0.00,VWS V14.01,2013-07-17 23:30:00,
2013-07-17 19:00:00,86.9,73.7,30.04,SW,232,0.0,4.0,65,0.00,,---,0.00,VWS V14.01,2013-07-18 00:00:00,
2013-07-17 19:30:00,85.4,73.6,30.04,West,265,0.0,2.0,68,0.00,,---,0.00,VWS V14.01,2013-07-18 00:30:00,
2013-07-17 20:00:00,84.9,73.6,30.03,WSW,246,0.0,4.0,69,0.00,,---,0.00,VWS V14.01,2013-07-18 01:00:00,
2013-07-17 20:30:00,83.9,74.3,30.04,WNW,288,5.0,11.0,73,0.00,,---,0.00,VWS V14.01,2013-07-18 01:30:00,
2013-07-17 21:00:00,82.2,73.1,30.04,North,349,0.0,9.0,74,0.00,,---,0.00,VWS V14.01,2013-07-18 02:00:00,
2013-07-17 21:30:00,81.0,71.9,30.05,North,349,0.0,0.0,74,0.00,,---,0.00,VWS V14.01,2013-07-18 02:30:00,
2013-07-17 22:00:00,79.8,70.0,30.05,North,349,0.0,0.0,72,0.00,,---,0.00,VWS V14.01,2013-07-18 03:00:00,
2013-07-17 22:30:00,78.9,69.5,30.05,North,349,0.0,0.0,73,0.00,,---,0.00,VWS V14.01,2013-07-18 03:30:00,
2013-07-17 23:00:00,78.1,71.1,30.05,North,349,0.0,0.0,79,0.00,,---,0.00,VWS V14.01,2013-07-18 04:00:00,
2013-07-17 23:30:00,77.0,70.0,30.05,North,349,0.0,0.0,79,0.00,,---,0.00,VWS V14.01,2013-07-18 04:30:00,